Temp
-7 -7 -7 -7 -7 -7 -7 -7 -7 -6 -6 -6 -6 -6 -6 -6 -6 -6 -6 -6 -6 -6 -6 -7 -7 -7 -7 -7 -7 -6 -6 -6 -6
-8 -8 -7 -6 -7 -7 -6 -7 -7 -7 -7 -6 -7 -7 -6 -6 -6 -6 -5 -5 -6 -6 -6 -6 -7 -7 -7 -6 -7 -7 -7 -7 -7
-7 -8 -8 -8 -7 -7 -7 -7 -7 -7 -7 -7 -7 -7 -7 -7 -6 -6 -6 -6 -6 -6 -6 -6 -7 -7 -7 -6 -7 -7 -8 -8 -7
-7 -7 -7 -8 -8 -8 -7 -7 -7 -7 -7 -7 -7 -6 -6 -7 -7 -7 -6 -6 -6 -6 -6 -6 -6 -6 -7 -6 -6 -7 -7 -7 -8
-8 -8 -8 -7 -7 -8 -8 -8 -7 -7 -7 -7 -7 -7 -7 -6 -6 -7 -7 -7 -7 -6 -6 -6 -6 -6 -7 -6 -7 -8 -8 -8 -7
-7 -7 -8 -8 -7 -7 -7 -7 -8 -8 -7 -7 -7 -7 -7 -7 -6 -6 -6 -6 -7 -7 -7 -7 -7 -7 -6 -7 -8 -8 -8 -8 -8
-7 -7 -7 -7 -7 -7 -7 -7 -7 -7 -8 -7 -8 -7 -7 -7 -7 -7 -6 -7 -7 -7 -7 -8 -8 -8 -8 -8 -8 -8 -8 -8 -8
-7 -7 -6 -6 -7 -7 -7 -7 -7 -7 -7 -7 -7 -7 -8 -8 -8 -7 -7 -7 -7 -7 -7 -7 -8 -8 -8 -8 -8 -8 -7 -7 -8
-6 -6 -6 -6 -6 -6 -7 -7 -7 -7 -7 -7 -8 -7 -8 -8 -8 -8 -8 -8 -7 -7 -7 -7 -7 -7 -7 -7 -8 -8 -7 -7 -7
-6 -5 -6 -7 -6 -6 -6 -7 -7 -8 -8 -8 -8 -8 -8 -8 -8 -8 -8 -8 -8 -7 -7 -7 -7 -8 -8 -7 -7 -7 -7 -7 -7
-6 -6 -6 -6 -6 -6 -6 -7 -7 -8 -8 -9 -9 -9 -9 -9 -9 -9 -9 -9 -9 -8 -8 -7 -8 -7 -8 -8 -8 -7 -7 -7 -7
-6 -6 -7 -7 -7 -7 -7 -8 -8 -9 -9 -9 -9 -10 -10 -10 -10 -10 -9 -9 -9 -8 -8 -8 -8 -8 -8 -7 -8 -8 -8 -7 -7
-7 -7 -7 -7 -8 -8 -8 -9 -9 -10 -10 -10 -10 -10 -10 -10 -10 -10 -10 -10 -10 -9 -9 -8 -8 -8 -8 -8 -8 -8 -8 -8 -8
-8 -8 -8 -8 -9 -9 -9 -9 -10 -10 -10 -10 -10 -10 -10 -10 -10 -10 -10 -10 -10 -10 -9 -9 -9 -9 -9 -9 -9 -8 -8 -8 -8
-8 -8 -9 -10 -10 -10 -10 -10 -10 -10 -10 -10 -10 -9 -10 -10 -10 -10 -10 -10 -9 -10 -10 -9 -9 -8 -9 -9 -9 -9 -8 -8 -8
-8 -9 -9 -10 -11 -10 -10 -10 -10 -10 -10 -10 -10 -10 -10 -9 -10 -10 -10 -9 -10 -9 -9 -9 -9 -9 -9 -9 -9 -9 -9 -8 -8
-9 -9 -10 -10 -11 -10 -10 -10 -10 -10 -10 -10 -10 -10 -10 -9 -10 -10 -10 -10 -10 -10 -8 -7 -9 -5 -9 -9 -9 -8 -8 -9 -8
-9 -10 -10 -10 -10 -10 -10 -10 -10 -10 -10 -10 -10 -10 -10 -10 -10 -10 -10 -10 -11 -10 -10 -8 -9 -9 -7 -9 -9 -9 -7 -9 -9
-10 -10 -10 -10 -10 -10 -10 -10 -11 -11 -10 -10 -10 -10 -10 -11 -11 -11 -11 -10 -11 -11 -11 -10 -9 -8 -9 -9 -8 -9 -8 -9 -9
-10 -11 -10 -10 -10 -10 -10 -10 -11 -11 -11 -11 -11 -11 -11 -11 -11 -11 -11 -11 -11 -11 -11 -11 -11 -9 -9 -9 -9 -8 -8 -8 -9
Height
5895 5896 5895 5893 5892 5891 5891 5891 5890 5889 5889 5889 5889 5889 5889 5888 5889 5890 5891 5892 5894 5894 5896 5897 5897 5898 5900 5903 5906 5909 5911 5913 5915
5895 5894 5893 5891 5892 5892 5891 5889 5889 5889 5890 5889 5889 5889 5889 5888 5888 5889 5891 5891 5891 5891 5892 5892 5895 5895 5899 5901 5903 5904 5907 5910 5911
5895 5894 5894 5893 5892 5890 5890 5890 5890 5890 5889 5888 5888 5888 5888 5888 5887 5887 5889 5889 5889 5887 5887 5891 5888 5883 5889 5896 5900 5902 5903 5906 5908
5893 5892 5892 5892 5891 5890 5890 5889 5889 5888 5887 5887 5887 5887 5887 5886 5886 5887 5887 5887 5886 5885 5883 5887 5883 5875 5890 5896 5896 5898 5899 5902 5905
5890 5890 5889 5889 5889 5889 5887 5886 5886 5885 5886 5885 5885 5885 5885 5884 5884 5884 5885 5885 5884 5882 5880 5883 5885 5889 5891 5892 5892 5894 5895 5898 5902
5886 5886 5885 5884 5884 5883 5884 5883 5883 5881 5881 5882 5882 5882 5882 5882 5882 5881 5881 5882 5881 5879 5875 5877 5878 5880 5881 5883 5885 5889 5890 5894 5898
5881 5880 5879 5878 5878 5877 5877 5876 5877 5877 5874 5875 5876 5877 5878 5878 5877 5877 5877 5877 5877 5876 5875 5872 5874 5874 5875 5878 5880 5881 5885 5888 5891
5875 5872 5872 5872 5871 5870 5870 5869 5868 5868 5869 5867 5868 5869 5870 5870 5870 5871 5872 5871 5872 5871 5871 5871 5870 5871 5871 5872 5875 5878 5880 5882 5885
5866 5866 5865 5864 5862 5860 5861 5859 5859 5858 5858 5858 5858 5859 5862 5861 5862 5863 5864 5865 5865 5866 5866 5865 5866 5868 5869 5870 5872 5874 5875 5876 5877
5858 5859 5859 5855 5851 5849 5849 5848 5846 5845 5845 5845 5845 5846 5849 5850 5852 5854 5856 5856 5856 5858 5858 5859 5859 5861 5863 5865 5866 5867 5868 5869 5871
5850 5850 5847 5844 5842 5840 5837 5836 5834 5832 5830 5830 5830 5831 5833 5836 5839 5843 5844 5846 5848 5850 5851 5851 5851 5852 5854 5857 5859 5860 5861 5862 5864
5841 5839 5837 5833 5829 5825 5823 5821 5819 5817 5815 5813 5814 5815 5817 5819 5823 5828 5832 5837 5839 5841 5842 5844 5844 5843 5845 5848 5851 5853 5854 5856 5858
5831 5827 5824 5820 5816 5813 5810 5808 5806 5805 5803 5800 5798 5796 5800 5803 5808 5812 5817 5824 5827 5829 5830 5832 5835 5836 5836 5839 5842 5845 5847 5849 5851
5820 5815 5811 5807 5803 5801 5800 5798 5796 5794 5791 5789 5785 5782 5783 5786 5791 5794 5801 5808 5810 5816 5817 5820 5823 5825 5826 5828 5832 5835 5838 5840 5843
5809 5805 5800 5796 5793 5791 5790 5787 5784 5782 5779 5776 5773 5770 5770 5773 5777 5780 5784 5786 5791 5796 5798 5803 5811 5814 5817 5818 5821 5823 5827 5830 5833
5797 5793 5789 5785 5782 5779 5776 5774 5771 5769 5766 5763 5761 5759 5758 5759 5761 5765 5767 5771 5772 5769 5763 5729 5784 5799 5805 5808 5809 5812 5815 5819 5821
5786 5781 5777 5773 5770 5767 5764 5760 5756 5753 5752 5750 5747 5746 5745 5745 5747 5748 5747 5750 5752 5749 5752 5759 5732 5756 5780 5793 5797 5799 5802 5808 5812
5775 5771 5767 5763 5759 5755 5750 5745 5742 5740 5738 5736 5734 5733 5731 5731 5732 5735 5733 5735 5738 5740 5741 5747 5744 5754 5758 5775 5781 5790 5790 5790 5799
5765 5761 5758 5753 5748 5741 5736 5731 5728 5726 5723 5723 5721 5720 5720 5718 5719 5722 5724 5725 5728 5731 5731 5736 5741 5753 5759 5764 5769 5772 5778 5778 5785
5756 5752 5748 5742 5736 5730 5723 5719 5715 5713 5712 5710 5710 5709 5708 5707 5707 5708 5712 5715 5718 5723 5724 5725 5734 5740 5745 5750 5753 5756 5758 5765 5774
Wind_Speed
8 5 5 7 9 7 4 6 5 3 2 2 4 4 4 5 5 6 8 8 8 10 12 15 15 17 19 18 15 13 13 12 12
12 12 15 15 9 7 8 7 5 7 7 4 4 3 4 4 7 8 8 9 11 13 14 12 13 17 19 20 19 16 15 14 14
14 12 11 11 12 13 10 7 4 3 4 4 5 5 6 9 9 9 11 12 13 14 16 15 20 22 18 20 20 20 16 17 15
22 17 16 16 15 14 12 12 10 7 6 6 6 7 7 8 10 11 13 13 15 15 18 15 19 18 19 22 20 21 19 18 15
24 24 25 23 23 21 19 18 17 16 15 14 12 10 11 10 12 11 11 15 17 18 19 17 17 13 18 18 18 20 20 20 19
26 26 26 27 26 26 24 24 23 23 23 22 20 17 15 15 14 14 15 13 15 19 21 17 17 19 19 17 17 20 20 26 26
28 28 26 27 28 28 29 29 28 27 29 28 27 26 23 21 21 19 18 17 16 16 20 20 19 20 21 21 22 22 22 23 25
32 33 31 30 30 32 32 33 34 33 32 34 32 33 31 30 30 27 23 22 18 18 17 21 21 21 21 21 20 23 23 23 26
34 32 33 34 36 37 35 37 38 39 39 39 38 37 36 35 33 30 28 27 25 21 20 20 23 22 22 22 23 25 25 22 26
36 32 33 38 42 43 43 43 43 44 44 45 46 45 42 40 40 36 34 32 31 29 25 26 23 25 24 23 24 25 25 25 26
39 36 39 42 44 46 47 48 48 49 49 50 51 52 51 49 46 42 39 37 34 32 32 28 28 26 27 27 26 27 26 28 27
39 40 41 44 48 49 49 47 46 46 47 49 51 54 58 60 56 52 47 42 40 37 36 34 30 30 29 27 29 31 29 28 27
40 43 45 46 47 45 42 37 33 33 36 39 41 46 54 57 59 61 59 50 48 44 39 38 37 34 32 30 30 32 32 31 28
42 44 47 46 44 38 33 36 40 39 40 44 44 42 41 42 50 58 58 58 61 57 46 43 41 37 35 34 32 33 35 33 30
42 43 44 43 41 39 36 38 39 38 37 39 41 44 46 45 42 41 48 58 60 68 58 56 45 39 37 37 37 36 36 37 33
44 44 43 42 43 44 43 44 45 43 38 40 37 41 43 44 46 47 48 48 55 67 68 45 58 43 42 40 42 40 39 38 36
44 44 42 39 39 41 47 47 46 43 41 40 42 43 46 47 44 44 47 49 49 51 59 49 59 45 46 46 47 46 42 38 37
42 40 33 35 40 43 43 45 43 39 39 42 42 43 44 48 49 46 46 44 47 48 47 55 63 63 41 48 48 50 50 40 40
39 34 35 40 40 44 42 41 37 38 35 36 37 36 39 44 46 44 45 46 45 45 45 47 45 51 54 54 52 53 50 39 40
34 35 37 38 40 41 37 32 27 25 29 32 35 38 39 39 42 45 44 43 41 42 41 43 43 48 58 52 64 57 36 43 40
Wind_Direction
346 358 360 17 43 45 40 41 34 18 317 271 267 247 240 251 242 230 248 253 248 248 255 250 247 237 231 228 227 235 255 257 246
338 342 343 356 358 2 15 23 19 17 17 344 282 278 264 255 263 265 259 254 243 246 259 256 244 233 239 233 229 233 244 248 248
320 315 316 320 328 336 338 340 359 343 334 332 349 297 281 282 264 260 259 263 264 261 252 244 251 233 221 231 233 240 241 252 253
315 314 306 306 310 305 302 304 301 298 296 303 302 292 285 296 284 274 267 259 263 267 270 254 258 243 257 239 233 239 242 248 249
299 304 300 301 299 297 293 289 287 289 284 287 279 279 288 285 278 281 288 283 271 266 266 265 254 237 249 241 236 240 245 247 245
290 286 287 289 288 288 286 284 282 279 282 275 280 275 274 279 283 282 279 279 277 275 275 265 254 254 248 243 244 242 257 245 241
294 289 284 280 278 277 279 279 276 271 272 273 273 272 271 277 279 281 281 273 267 272 270 268 257 251 254 250 247 248 255 248 231
284 285 285 283 282 281 279 276 275 273 267 269 268 268 268 269 272 274 274 275 270 259 266 263 259 256 254 252 243 242 244 252 238
284 284 287 290 290 287 282 280 278 277 274 271 267 261 261 263 264 268 268 266 270 271 256 256 255 250 253 246 238 241 242 242 244
283 287 292 291 288 287 288 286 281 275 272 270 268 264 260 256 258 256 260 263 262 263 261 254 253 251 248 251 246 241 242 244 246
290 295 290 288 289 288 286 283 279 276 272 267 263 262 259 258 255 256 252 254 257 259 260 255 248 248 249 248 249 247 243 243 244
291 291 291 291 291 291 288 285 282 277 275 271 266 260 256 254 256 254 252 250 249 250 253 255 251 244 245 247 246 248 245 243 243
290 292 294 295 294 292 291 287 281 280 282 281 277 272 261 257 256 253 252 251 247 244 245 248 249 246 243 243 244 246 246 246 244
291 295 297 296 295 295 289 290 287 283 281 282 278 268 266 263 257 256 255 251 250 241 237 241 243 244 241 240 239 240 243 242 242
295 296 295 292 289 286 290 292 291 285 276 277 273 266 266 266 261 259 257 253 250 247 243 235 235 240 240 239 239 237 239 241 239
296 298 295 290 286 288 290 291 289 287 278 269 271 269 270 268 264 264 260 253 250 252 260 260 220 227 236 238 237 236 238 241 241
298 299 298 294 290 287 290 291 288 284 279 271 268 264 261 262 265 266 265 264 258 260 254 244 249 202 226 233 238 233 232 235 237
301 301 294 292 298 296 298 289 287 285 278 271 267 265 264 263 263 263 262 262 262 263 262 245 252 237 223 225 229 235 233 226 234
303 294 291 298 300 298 304 291 289 283 277 271 269 266 269 264 262 261 261 261 260 260 262 263 252 247 259 245 219 228 229 225 229
300 295 301 297 306 303 305 296 293 279 277 277 273 269 267 265 261 260 258 259 257 254 257 257 249 247 248 255 248 226 222 221 224